ADZ255 HKJK-HTZA

Flight info

Callsign ADZ255
Flight time 0h 54m
Altitude 37000
Route ATUDU1D GABSO UT913 DUNDO
Aircraft B738/M-SDE3FGHIJ1RWY/LB2

Departure

Time 2026-04-22 20:50
Airport Jomo Kenyatta International Airport (HKJK)

Arrival

Time 2026-04-22 21:44
Airport Abeid Amani Karume International Airport (HTZA)
Time Latitude Longitude Altitude Speed Heading
2026-04-22 20:17 -1.33410 36.91514 5335 ft 0 kts 143°
2026-04-22 20:37 -1.33406 36.91511 5329 ft 4 kts 143°
2026-04-22 20:37 -1.33384 36.91495 5332 ft 4 kts 139°
2026-04-22 20:37 -1.33364 36.91476 5332 ft 4 kts 132°
2026-04-22 20:38 -1.33348 36.91455 5335 ft 4 kts 114°
2026-04-22 20:38 -1.33344 36.91433 5329 ft 3 kts 59°
2026-04-22 20:38 -1.33345 36.91430 5329 ft 1 kts 54°
2026-04-22 20:43 -1.33325 36.91458 5331 ft 10 kts 54°
2026-04-22 20:43 -1.33283 36.91517 5332 ft 10 kts 54°
2026-04-22 20:44 -1.33241 36.91575 5329 ft 10 kts 53°
2026-04-22 20:44 -1.33191 36.91624 5337 ft 10 kts 39°
2026-04-22 20:44 -1.33139 36.91667 5330 ft 10 kts 45°
2026-04-22 20:44 -1.33099 36.91720 5335 ft 9 kts 53°
2026-04-22 20:45 -1.33061 36.91772 5330 ft 9 kts 54°
2026-04-22 20:45 -1.33020 36.91818 5334 ft 9 kts 26°
2026-04-22 20:45 -1.32971 36.91809 5331 ft 4 kts 338°
2026-04-22 20:45 -1.32949 36.91799 5337 ft 2 kts 337°
2026-04-22 20:46 -1.32896 36.91751 5338 ft 7 kts 324°
2026-04-22 20:46 -1.32857 36.91723 5338 ft 7 kts 323°
2026-04-22 20:46 -1.32819 36.91695 5337 ft 7 kts 323°
2026-04-22 20:47 -1.32782 36.91668 5338 ft 7 kts 323°
2026-04-22 20:47 -1.32743 36.91653 5342 ft 6 kts 18°
2026-04-22 20:47 -1.32729 36.91669 5338 ft 0 kts 54°
2026-04-22 20:47 -1.32728 36.91670 5338 ft 0 kts 54°
2026-04-22 20:49 -1.32713 36.91691 5337 ft 18 kts 53°
2026-04-22 20:49 -1.32492 36.91995 5327 ft 89 kts 54°
2026-04-22 20:49 -1.32006 36.92667 5313 ft 148 kts 54°
2026-04-22 20:49 -1.31307 36.93629 5445 ft 185 kts 54°
2026-04-22 20:50 -1.30545 36.94636 6327 ft 177 kts 55°
2026-04-22 20:50 -1.30082 36.95753 7068 ft 176 kts 81°
2026-04-22 20:50 -1.29908 36.97029 7467 ft 198 kts 85°
2026-04-22 20:50 -1.29761 36.98485 7686 ft 221 kts 85°
2026-04-22 20:51 -1.29600 37.00101 7850 ft 246 kts 85°
2026-04-22 20:51 -1.29416 37.01899 8056 ft 273 kts 85°
2026-04-22 20:51 -1.29206 37.03822 8697 ft 282 kts 84°
2026-04-22 20:51 -1.28985 37.05758 9505 ft 285 kts 84°
2026-04-22 20:52 -1.28756 37.07743 10299 ft 288 kts 84°
2026-04-22 20:52 -1.28518 37.09787 10709 ft 308 kts 84°
2026-04-22 20:52 -1.28394 37.12007 10865 ft 331 kts 97°
2026-04-22 20:52 -1.29149 37.14205 11191 ft 341 kts 122°
2026-04-22 20:53 -1.30830 37.15887 11730 ft 347 kts 147°
2026-04-22 20:53 -1.33061 37.16800 12514 ft 348 kts 162°
2026-04-22 20:53 -1.35409 37.17441 13207 ft 352 kts 164°
2026-04-22 20:53 -1.37808 37.18048 13843 ft 357 kts 165°
2026-04-22 20:54 -1.40211 37.18647 14426 ft 361 kts 165°
2026-04-22 20:54 -1.42659 37.19260 15024 ft 364 kts 164°
2026-04-22 20:54 -1.45122 37.19886 15595 ft 367 kts 164°
2026-04-22 20:54 -1.47614 37.20527 16180 ft 371 kts 164°
2026-04-22 20:55 -1.50123 37.21180 16768 ft 374 kts 164°
2026-04-22 20:55 -1.52653 37.21841 17331 ft 377 kts 164°
2026-04-22 20:55 -1.55206 37.22510 17893 ft 381 kts 164°
2026-04-22 20:55 -1.57746 37.23178 18419 ft 384 kts 163°
2026-04-22 20:56 -1.60348 37.23864 18866 ft 387 kts 163°
2026-04-22 20:56 -1.62969 37.24555 19340 ft 389 kts 163°
2026-04-22 20:56 -1.64708 37.25013 19645 ft 391 kts 163°
2026-04-22 20:56 -1.67353 37.25712 20106 ft 394 kts 163°
2026-04-22 20:57 -1.70881 37.26642 20695 ft 397 kts 163°
2026-04-22 20:57 -1.73565 37.27350 21166 ft 400 kts 163°
2026-04-22 20:57 -1.75384 37.27830 21476 ft 401 kts 163°
2026-04-22 20:57 -1.78061 37.28534 21911 ft 404 kts 163°
2026-04-22 20:58 -1.80786 37.29252 22353 ft 406 kts 163°
2026-04-22 20:58 -1.83527 37.29975 22769 ft 408 kts 163°
2026-04-22 20:58 -1.86280 37.30701 23223 ft 410 kts 163°
2026-04-22 20:58 -1.89050 37.31431 23643 ft 412 kts 163°
2026-04-22 20:59 -1.91829 37.32164 23967 ft 415 kts 163°
2026-04-22 20:59 -1.94639 37.32905 24273 ft 418 kts 163°
2026-04-22 20:59 -1.97457 37.33648 24576 ft 420 kts 163°
2026-04-22 20:59 -2.00293 37.34395 24891 ft 422 kts 163°
2026-04-22 21:00 -2.03146 37.35148 25203 ft 425 kts 163°
2026-04-22 21:00 -2.06006 37.35902 25519 ft 426 kts 163°
2026-04-22 21:00 -2.08882 37.36661 25806 ft 429 kts 163°
2026-04-22 21:00 -2.11779 37.37425 26114 ft 431 kts 164°
2026-04-22 21:01 -2.14650 37.38182 26449 ft 432 kts 164°
2026-04-22 21:01 -2.17565 37.38950 26778 ft 433 kts 164°
2026-04-22 21:01 -2.20494 37.39722 27012 ft 436 kts 164°
2026-04-22 21:01 -2.23445 37.40501 27267 ft 439 kts 164°
2026-04-22 21:02 -2.26409 37.41283 27550 ft 441 kts 164°
2026-04-22 21:02 -2.29385 37.42068 27843 ft 442 kts 164°
2026-04-22 21:02 -2.32369 37.42855 28118 ft 444 kts 164°
2026-04-22 21:02 -2.35328 37.43635 28376 ft 446 kts 164°
2026-04-22 21:03 -2.38338 37.44429 28652 ft 448 kts 164°
2026-04-22 21:03 -2.41353 37.45224 28914 ft 450 kts 164°
2026-04-22 21:03 -2.44387 37.46024 29203 ft 451 kts 164°
2026-04-22 21:03 -2.47419 37.46825 29512 ft 451 kts 164°
2026-04-22 21:04 -2.50460 37.47628 29744 ft 453 kts 164°
2026-04-22 21:04 -2.53525 37.48437 29938 ft 456 kts 164°
2026-04-22 21:04 -2.56603 37.49250 30199 ft 457 kts 164°
2026-04-22 21:04 -2.59653 37.50054 30397 ft 459 kts 164°
2026-04-22 21:05 -2.62749 37.50871 30594 ft 461 kts 164°
2026-04-22 21:05 -2.65861 37.51693 30758 ft 463 kts 164°
2026-04-22 21:05 -2.68980 37.52516 30945 ft 464 kts 164°
2026-04-22 21:05 -2.72103 37.53340 31227 ft 463 kts 164°
2026-04-22 21:06 -2.75198 37.54157 31734 ft 456 kts 164°
2026-04-22 21:06 -2.78247 37.54963 32194 ft 451 kts 165°
2026-04-22 21:06 -2.81303 37.55770 32326 ft 455 kts 164°
2026-04-22 21:06 -2.84359 37.56645 32421 ft 459 kts 160°
2026-04-22 21:07 -2.87288 37.57940 32587 ft 460 kts 150°
2026-04-22 21:07 -2.90029 37.59585 32839 ft 460 kts 148°
2026-04-22 21:07 -2.95482 37.62958 33169 ft 463 kts 148°
2026-04-22 21:08 -2.98210 37.64640 33650 ft 458 kts 148°
2026-04-22 21:08 -3.00943 37.66313 33789 ft 462 kts 148°
2026-04-22 21:08 -3.06477 37.69675 34160 ft 464 kts 149°
2026-04-22 21:09 -3.09227 37.71339 34486 ft 461 kts 149°
2026-04-22 21:09 -3.11975 37.73002 34743 ft 460 kts 149°
2026-04-22 21:09 -3.14711 37.74657 35013 ft 459 kts 149°
2026-04-22 21:09 -3.17451 37.76315 35164 ft 461 kts 149°
2026-04-22 21:10 -3.20204 37.77981 35323 ft 462 kts 149°
2026-04-22 21:10 -3.22926 37.79629 35548 ft 462 kts 149°
2026-04-22 21:10 -3.25673 37.81292 35769 ft 462 kts 149°
2026-04-22 21:10 -3.28430 37.82962 35958 ft 462 kts 149°
2026-04-22 21:11 -3.31183 37.84630 36145 ft 463 kts 149°
2026-04-22 21:11 -3.33938 37.86298 36359 ft 462 kts 149°
2026-04-22 21:11 -3.36688 37.87965 36586 ft 462 kts 149°
2026-04-22 21:11 -3.39433 37.89628 36769 ft 462 kts 149°
2026-04-22 21:12 -3.42190 37.91298 36939 ft 462 kts 149°
2026-04-22 21:12 -3.44953 37.92972 37021 ft 465 kts 149°
2026-04-22 21:12 -3.50451 37.96304 37032 ft 463 kts 149°
2026-04-22 21:13 -3.55949 37.99636 37024 ft 459 kts 149°
2026-04-22 21:13 -3.61396 38.02938 37019 ft 455 kts 149°
2026-04-22 21:14 -3.66785 38.06244 37022 ft 453 kts 149°
2026-04-22 21:14 -3.72146 38.09552 37030 ft 453 kts 149°
2026-04-22 21:15 -3.77568 38.12893 37030 ft 461 kts 149°
2026-04-22 21:15 -3.83022 38.16252 37026 ft 465 kts 149°
2026-04-22 21:16 -3.88548 38.19655 37018 ft 466 kts 149°
2026-04-22 21:16 -3.94086 38.23067 37009 ft 467 kts 149°
2026-04-22 21:17 -3.99619 38.26476 37005 ft 466 kts 149°
2026-04-22 21:17 -4.02357 38.28162 36792 ft 469 kts 149°
2026-04-22 21:17 -4.05143 38.29877 36273 ft 469 kts 149°
2026-04-22 21:18 -4.07927 38.31586 35689 ft 468 kts 148°
2026-04-22 21:18 -4.10704 38.33287 35186 ft 465 kts 148°
2026-04-22 21:18 -4.13453 38.34969 34738 ft 461 kts 148°
2026-04-22 21:18 -4.16182 38.36638 34290 ft 458 kts 148°
2026-04-22 21:19 -4.18890 38.38296 33795 ft 455 kts 148°
2026-04-22 21:19 -4.21584 38.39945 33311 ft 451 kts 148°
2026-04-22 21:19 -4.24222 38.41562 32856 ft 447 kts 148°
2026-04-22 21:19 -4.26861 38.43179 32412 ft 443 kts 148°
2026-04-22 21:20 -4.29480 38.44785 31969 ft 439 kts 148°
2026-04-22 21:20 -4.32069 38.46372 31539 ft 435 kts 148°
2026-04-22 21:20 -4.34647 38.47953 31127 ft 431 kts 148°
2026-04-22 21:20 -4.37198 38.49517 30647 ft 428 kts 148°
2026-04-22 21:21 -4.39731 38.51069 30241 ft 425 kts 147°
2026-04-22 21:21 -4.42245 38.52611 29751 ft 422 kts 147°
2026-04-22 21:21 -4.44740 38.54142 29281 ft 418 kts 147°
2026-04-22 21:21 -4.47212 38.55657 28820 ft 415 kts 147°
2026-04-22 21:22 -4.49670 38.57165 28364 ft 411 kts 147°
2026-04-22 21:22 -4.52100 38.58656 27923 ft 408 kts 147°
2026-04-22 21:22 -4.54482 38.60116 27491 ft 404 kts 147°
2026-04-22 21:22 -4.56876 38.61585 27064 ft 401 kts 147°
2026-04-22 21:23 -4.59247 38.63041 26639 ft 399 kts 147°
2026-04-22 21:23 -4.61607 38.64489 26211 ft 396 kts 147°
2026-04-22 21:23 -4.63952 38.65929 25773 ft 394 kts 146°
2026-04-22 21:23 -4.66286 38.67362 25342 ft 392 kts 146°
2026-04-22 21:24 -4.68611 38.68790 24904 ft 390 kts 146°
2026-04-22 21:24 -4.70924 38.70210 24486 ft 389 kts 146°
2026-04-22 21:24 -4.73230 38.71625 24054 ft 387 kts 146°
2026-04-22 21:24 -4.75525 38.73034 23631 ft 386 kts 146°
2026-04-22 21:25 -4.77780 38.74419 23162 ft 384 kts 146°
2026-04-22 21:25 -4.80055 38.75816 22705 ft 381 kts 146°
2026-04-22 21:25 -4.82312 38.77202 22276 ft 379 kts 146°
2026-04-22 21:25 -4.84554 38.78578 21852 ft 377 kts 146°
2026-04-22 21:26 -4.86815 38.79896 21428 ft 376 kts 152°
2026-04-22 21:26 -4.89244 38.80862 21029 ft 375 kts 159°
2026-04-22 21:26 -4.91713 38.81710 20625 ft 374 kts 159°
2026-04-22 21:26 -4.94174 38.82548 20225 ft 372 kts 159°
2026-04-22 21:27 -4.96626 38.83385 19797 ft 372 kts 159°
2026-04-22 21:27 -4.99071 38.84225 19395 ft 371 kts 159°
2026-04-22 21:27 -5.01512 38.85068 18971 ft 370 kts 159°
2026-04-22 21:27 -5.03924 38.85905 18565 ft 370 kts 159°
2026-04-22 21:28 -5.06365 38.86754 18136 ft 370 kts 160°
2026-04-22 21:28 -5.08802 38.87603 17697 ft 369 kts 160°
2026-04-22 21:28 -5.11220 38.88445 17281 ft 367 kts 160°
2026-04-22 21:28 -5.13604 38.89277 16879 ft 365 kts 160°
2026-04-22 21:29 -5.15992 38.90109 16492 ft 363 kts 160°
2026-04-22 21:29 -5.18370 38.90938 16103 ft 361 kts 160°
2026-04-22 21:29 -5.20737 38.91764 15716 ft 359 kts 160°
2026-04-22 21:29 -5.23092 38.92586 15322 ft 357 kts 160°
2026-04-22 21:30 -5.25433 38.93403 14940 ft 355 kts 160°
2026-04-22 21:30 -5.27769 38.94218 14543 ft 354 kts 160°
2026-04-22 21:30 -5.30092 38.95028 14160 ft 353 kts 160°
2026-04-22 21:30 -5.32410 38.95838 13759 ft 352 kts 159°
2026-04-22 21:31 -5.34722 38.96645 13332 ft 350 kts 160°
2026-04-22 21:31 -5.36985 38.97435 12931 ft 348 kts 160°
2026-04-22 21:31 -5.39267 38.98231 12535 ft 346 kts 160°
2026-04-22 21:31 -5.41535 38.99022 12158 ft 343 kts 160°
2026-04-22 21:32 -5.43782 38.99807 11777 ft 341 kts 160°
2026-04-22 21:32 -5.46012 39.00587 11398 ft 339 kts 160°
2026-04-22 21:32 -5.48233 39.01364 11021 ft 337 kts 160°
2026-04-22 21:32 -5.50443 39.02136 10645 ft 335 kts 160°
2026-04-22 21:33 -5.52640 39.02902 10330 ft 332 kts 160°
2026-04-22 21:33 -5.54791 39.03652 10188 ft 323 kts 160°
2026-04-22 21:33 -5.56881 39.04380 10042 ft 314 kts 160°
2026-04-22 21:33 -5.58917 39.05090 9885 ft 305 kts 159°
2026-04-22 21:34 -5.60881 39.05775 9893 ft 293 kts 159°
2026-04-22 21:34 -5.62779 39.06438 9849 ft 283 kts 159°
2026-04-22 21:34 -5.64590 39.07072 9793 ft 274 kts 159°
2026-04-22 21:34 -5.66372 39.07695 9662 ft 269 kts 159°
2026-04-22 21:35 -5.68133 39.08312 9411 ft 267 kts 159°
2026-04-22 21:35 -5.69881 39.08924 8994 ft 266 kts 159°
2026-04-22 21:35 -5.71630 39.09536 8564 ft 266 kts 159°
2026-04-22 21:35 -5.73369 39.10144 8193 ft 263 kts 159°
2026-04-22 21:36 -5.75098 39.10747 7802 ft 261 kts 160°
2026-04-22 21:36 -5.76810 39.11344 7438 ft 260 kts 160°
2026-04-22 21:36 -5.78509 39.11939 7094 ft 257 kts 160°
2026-04-22 21:36 -5.80178 39.12522 6941 ft 252 kts 160°
2026-04-22 21:37 -5.81840 39.13104 6629 ft 251 kts 160°
2026-04-22 21:37 -5.83472 39.13676 6189 ft 252 kts 160°
2026-04-22 21:37 -5.85145 39.14260 5862 ft 254 kts 160°
2026-04-22 21:37 -5.86805 39.14841 5614 ft 252 kts 160°
2026-04-22 21:38 -5.88456 39.15418 5329 ft 251 kts 160°
2026-04-22 21:38 -5.90101 39.15994 5081 ft 249 kts 160°
2026-04-22 21:38 -5.91734 39.16564 4790 ft 249 kts 161°
2026-04-22 21:38 -5.93362 39.17132 4532 ft 247 kts 161°
2026-04-22 21:39 -5.94980 39.17700 4287 ft 245 kts 161°
2026-04-22 21:39 -5.96556 39.18252 4213 ft 235 kts 161°
2026-04-22 21:39 -5.98074 39.18783 4157 ft 227 kts 161°
2026-04-22 21:39 -5.99532 39.19293 4079 ft 217 kts 161°
2026-04-22 21:40 -6.00939 39.19786 3867 ft 214 kts 161°
2026-04-22 21:40 -6.02339 39.20274 3654 ft 211 kts 161°
2026-04-22 21:40 -6.03764 39.20647 3325 ft 215 kts 172°
2026-04-22 21:40 -6.05238 39.20804 3046 ft 212 kts 175°
2026-04-22 21:41 -6.06675 39.20936 2777 ft 208 kts 174°
2026-04-22 21:41 -6.08101 39.21075 2509 ft 204 kts 174°
2026-04-22 21:41 -6.09488 39.21213 2246 ft 196 kts 175°
2026-04-22 21:41 -6.10819 39.21346 1997 ft 186 kts 174°
2026-04-22 21:42 -6.12074 39.21472 1756 ft 174 kts 174°
2026-04-22 21:42 -6.13228 39.21589 1562 ft 157 kts 175°
2026-04-22 21:42 -6.14254 39.21693 1368 ft 140 kts 175°
2026-04-22 21:42 -6.15217 39.21789 1186 ft 140 kts 175°
2026-04-22 21:43 -6.16170 39.21887 1008 ft 136 kts 174°
2026-04-22 21:43 -6.17121 39.21983 805 ft 137 kts 174°
2026-04-22 21:43 -6.18060 39.22075 662 ft 138 kts 174°
2026-04-22 21:43 -6.19036 39.22176 531 ft 142 kts 173°
2026-04-22 21:44 -6.19994 39.22270 314 ft 139 kts 172°
2026-04-22 21:44 -6.20962 39.22367 122 ft 141 kts 172°
2026-04-22 21:44 -6.21876 39.22458 62 ft 109 kts 174°
2026-04-22 21:44 -6.22263 39.22494 56 ft 19 kts 193°
2026-04-22 21:45 -6.22299 39.22424 57 ft 17 kts 265°
2026-04-22 21:45 -6.22303 39.22376 54 ft 1 kts 265°
2026-04-22 21:45 -6.22305 39.22362 58 ft 3 kts 262°
2026-04-22 21:45 -6.22306 39.22355 58 ft 2 kts 259°
2026-04-22 21:46 -6.22302 39.22338 52 ft 3 kts 304°
2026-04-22 21:46 -6.22268 39.22326 58 ft 8 kts 355°
2026-04-22 21:46 -6.22195 39.22320 54 ft 12 kts 354°
2026-04-22 21:46 -6.22114 39.22312 55 ft 11 kts 354°
2026-04-22 21:47 -6.22065 39.22301 59 ft 3 kts 304°
2026-04-22 21:47 -6.22064 39.22281 59 ft 4 kts 264°
2026-04-22 21:47 -6.22068 39.22253 54 ft 3 kts 265°
2026-04-22 21:47 -6.22069 39.22242 60 ft 1 kts 265°
2026-04-22 21:48 -6.22069 39.22238 60 ft 0 kts 265°